Terug naar catalogus

STARLINK-37896

ActiefCommunicatieVLEO
NORAD 69970·PAYLOAD·🇺🇸 United States

Gelanceerd Jul 9, 2026 vanaf Cape Canaveral Space Force Station

Loading…

Volgende Passages (komende 24 uur)

TLE

VersSource: CelesTrak SupGP

Epoch: Sep 15, 2026, 03:13 UTC

1 69970C 26157AD  26258.13451389  .00076070  00000+0  22466-2 0  2588
2 69970  53.1596 358.5384 0001394  73.4797 252.8512 15.34365293    19

Volg STARLINK-37896 in realtime met AllMySat

Download on the App Store